map of ROK home
Great Circle Mapper logo
ROK - Airport
Location
City:  Rockhampton, Queensland, Australia
ICAO:YBRK
IATA:ROK

Details
Type:Airport (Aerodrome, Airfield)
Use:Public/Civil
Latitude:23°22'55"S (-23.381943)
Longitude:150°28'31"E (150.475278)
Datum:WGS 1984
Elevation:34 ft (10 m)
Variation:9.22°E (WMM2015 magnetic declination)
-0.01° annual change
Runways:2
Longest:8622 × 148 ft (2628 × 45 m), paved

Time
Time Zone:UTC+10
Local Time:

Weather
METAR:YBRK 281830Z AUTO 00000KT 9999 // NCD 08/08 Q1022
TAF:YBRK 281757Z 2818/2918 13004KT 9999 FEW015
FM290100 08010KT 9999 FEW035
FM291200 13004KT 9999 FEW015 PROB30 2818/2823 0500 FG PROB30 2915/2918 0500 FG

Related Locations
Nearby:
Farthest:NTO: 11922 mi / 19187 km
Ponta do Sol [Agostinho Neto], Ribeira Grande, Santo Antão, CV

Find:

   beyond  
but within

Other Information
Maps:
NOTAMs:
Links:
Sources:

  
flag of Australia
flag of Queensland
  

Sectional Chart

Flight Planning
at skyvector.com

Satellite Image

Google Maps Satellite view

 

Copyright © 2004-2016 Karl L. Swartz. All rights reserved.
The Great Circle Mapper name and logo are trademarks of the Great Circle Mapper.
All other trademarks mentioned herein belong to their respective owners.
Please see credits for attibutions and further copyright information.

  Follow gcmap on Facebook Follow gcmap on Twitter Follow gcmap on Google+ GCmap on LinkedIn

hCard Microformat

Geo Microformat